Погода в Сьюдад-Истепек

Мексика     16°33′27″N   95°05′58″W
темп.,
°C
ветер,
м/с
пор.,
м/с
влажн.,
%
обл.,
%
осадки,
мм/ч
давл.,
гПа
погр.,
м
12 августа, пт
пт1201:00+25с378120 0.0 1013272
04:00+24с35875 0.0 1012145
07:00+23с238914 0.0 101376
10:00+30ссв23588 0.0 1014789
13:00+34в334361 0.0 10122013
16:00+30ююв446366 0.5 1011617
19:00+28ююв347488 2.3 1011403
22:00+25юв1288100 3.8 101353
13 августа, сб
сб1301:00+25юв1191100 9.6 101445
04:00+24юв1294100 4.8 1013133
07:00+23зюз1196100 7.5 1014105
10:00+24зсз1285100 0.5 1015268
13:00+27сз1174100 0.5 1014323
16:00+30ююз326070 0.0 1011819
19:00+27ю237275 0.0 1011300
22:00+25ююв1179100 0.0 101461
14 августа, вс
вс1401:00+24ссв118341 0.0 101349
04:00+24ссз1187100 0.0 101128
07:00+23св118960 0.0 101228
10:00+29ю126420 0.0 1013633
13:00+28юв446794 0.0 1013581
16:00+29ю356694 0.0 1011651
19:00+27ю367299 0.0 1011500
22:00+26ююв237894 0.0 1012135
15 августа, пн
пн1501:00+24ююз128558 0.0 101291
04:00+23зюз019099 0.0 101175
07:00+23ссз119187 0.0 101128
10:00+28ююв137027 0.0 1012717
13:00+32ююв54566 0.0 10111319
16:00+31ююв5558100 0.0 10091224
19:00+28ююв347284 0.0 1010798
22:00+26ю128499 0.0 101194
16 августа, вт
вт1601:00+25юз128791 0.1 101193
04:00+24ююз119149 0.2 101072
07:00+24ссз019295 1.1 101022
10:00+29юв237033 0.2 1012866
13:00+32ююв545487 0.3 10111523
16:00+32ююв4456100 0.0 10091237
19:00+28ю357287 0.0 1009614
22:00+25юв2290100 1.5 101262